Location: Sternwarte_Laufen
(47.9344°N, 12.9346°E)
Time: 06:11:28
(UTC+02:00)

BlueWalker 3 - Pass Details

Date: 19 May 2026
Orbit: 447 x 456 km, 53.2° (Epoch: 10 June)

Event Time Altitude Azimuth Distance (km) Brightness Sun altitude
Exits shadow 02:24:17 - 285° (WNW) 1,859 4.8 -20.0°
Reaches altitude 10° 02:25:02 10° 290° (WNW) 1,575 4.4 -20.0°
Maximum altitude 02:28:18 34° 357° (N) 766 3.4 -19.8°
Drops below altitude 10° 02:31:34 10° 63° (ENE) 1,577 5.1 -19.6°
Sets 02:33:49 0° 73° (ENE) 2,450 6.0 -19.4°
